NOAA 16 DEB, 41276

Orbit data source: Space-Track

NOAA 16 DEB, 41276 is space debris in SSO originally from a launch on Thu, 21 Sep 2000 UTC launched from the Air Force Western Test Range (AFWTR). Debris objects in space refer to the collection of defunct objects orbiting the Earth. Examples of debris include non-operational satellites, rocket bodies, and fragments generated from explosions, collisions, or faulty payload assembly.

Loading next visibility...
Identifier
41276, 2000-055GC
Orbit
SSO
Country
Flag of USUS
Related business
Manufacturer
Unknown
Mission
Spacecraft
Bus & Motor
Unknown
Mass
Unknown
Launch date (UTC)
2000-09-21 (26 years ago)
Launch vehicle
Unknown
Launch site
Air Force Western Test Range (AFWTR)
Object type
Payload
Rocket body
Debris
Shape & HBR
Unknown shape, 0.1 m
Radar Cross Section
Medium (>0.1 m² and <1 m²)

Expand to show TLE details & history
Last TLE update: 1 week ago

TLE from 1 week ago
0 NOAA 16 DEB
1 41276U 00055GC  26166.95691503  .00002193  00000-0  97046-3 0  9993
2 41276  98.6469 216.7375 0014730 149.7837 210.4195 14.24138504540844
Epoch: 2026-06-15T22:57Z
TLE epoch observation values (Epoch: 2026-06-15T22:57:57.458Z)
Latitude
0.00003°
Longitude
-31.98777°
Altitude
823.451 km
Speed
7.437 km/s
True Right ascension
14h 26m 56s
True Declination
0° 00' 00"
Sunlit
Object was in full shadow at epoch
Visualization orbit readout
Latitude
Unknown
Longitude
Unknown
Altitude
Unknown
Speed
Unknown
Apparent Right ascension
Unknown
Apparent Declination
Unknown
Sunlit
N/A
Visualization observer readout
Local Sidereal Time
23:18:38
Azimuth
Unknown
Elevation
Unknown
Doppler factor
Unknown
Orbital elements
Apogee altitude
819.127 km
Perigee altitude
797.955 km
Semi-major axis
7,186.678 km
Eccentricity
0.00147
Inclination
98.6469°
RAAN
216.7375°
Arg. of periapsis
149.7837°
True anomaly
210.33417°
Mean anomaly
210.4195°
Eccentric anomaly
210.37682°
Mean motion
3.56247 °/min
Orbital period
101.05 mins
BSTAR
0.00097046
Loading maneuver chart data...
Computing Atmospheric mass density...
Loading historical data...
Loading historical data...
Loading historical data...
Loading historical data...
Loading historical data...
Loading historical data...
Loading historical data...

Documentation

Showing up to 5 results
|